BEIDOU-2 IGSO-2 (C07)

Last updated on Thu Nov 21 2024 00:03:16 GMT+0000 (Coordinated Universal Time)

1 37256U 10068A 24325.60716812 -.00000206 00000+0 00000+0 0 9992 2 37256 48.5936 278.9081 0038213 218.1361 247.0556 1.00252709 51049
UTC large
Height (km)
Speed (km/s)
/
Latitude / Longitude
Inclination (degrees)
Orbital Period (minutes)
Azimuth
Elevation
Range (km)
Doppler Factor

Next 0 passes for location: London (51.5072 / 0.1276)

Sorry there are no passes over London.